BEIDOU-3S IGSO-2S

Last updated on Thu Sep 03 2026 00:03:01 GMT+0000 (Coordinated Universal Time)

1 40938U 15053A 26242.02753071 -.00000098 00000+0 00000+0 0 9995 2 40938 49.1146 257.8968 0066023 192.1118 353.2814 1.00287866 40093
UTC large
Height (km)
Speed (km/s)
/
Latitude / Longitude
Inclination (degrees)
Orbital Period (minutes)
Azimuth
Elevation
Range (km)
Doppler Factor

Next 0 passes for location: London (51.5072 / 0.1276)

No passes found over London.
BEIDOU-3S IGSO-2S